DW4707 Campi Bisenzio - Firenze IT current weather conditions

sailwx.info

Last reported at 2016-Apr-30 13:33 UTC.
Time now 2016-May-04 23:02 UTC

Location: N 43°50' E 011°08'.
View on Google Maps.

See reports from other nearby stations

  
Tides and Currents Weather Stations Pressure Air Temp Water Temp Dewpoint Dewpoint Depression Visibility Wind Speed Wind Dir Waves Ship Positions
date/time (UTC)wind fromknots sea level pressurealtimeterstation pressurevisibilityair tempwater tempwave heightnotes
2016-May-04 21:41 045 15.6
2016-May-04 21:36 045 15.6
2016-May-04 21:31 045 15.6
2016-May-04 21:11 045 16.1
2016-May-04 20:56 16.1
2016-May-04 20:51 338 16.1
2016-May-04 20:46 338 16.1
2016-May-04 20:41 338 16.7
2016-May-04 20:36 16.1
2016-May-04 20:31 260 16.1
2016-May-04 20:26 284 16.7
2016-May-04 20:21 292 16.7
2016-May-04 20:16 248 16.7
2016-May-04 20:11 227 16.7
2016-May-04 20:06 180 17.2
2016-May-04 19:56 127 17.2
2016-May-04 19:51 135 17.2
2016-May-04 19:46 125 17.2
2016-May-04 19:41 112 17.8
2016-May-04 19:31 107 17.8
2016-May-04 19:26 045 18.3
2016-May-04 19:21 022 18.3
2016-May-04 19:16 027 18.3
2016-May-04 19:11 045 18.9
2016-May-04 19:06 022 18.9
2016-May-04 19:01 045 19.4
2016-May-04 18:56 045 19.4
2016-May-04 18:31 20.0
2016-May-04 18:26 20.0
2016-May-04 18:21 022 20.0
2016-May-04 18:16 068 20.0
2016-May-04 18:11 068 20.0
2016-May-04 18:06 068 20.6
2016-May-04 18:01 087 20.6
2016-May-04 17:56 046 20.6
2016-May-04 17:51 045 21.1
2016-May-04 17:46 022 21.1
2016-May-04 17:36 202 21.7
2016-May-04 17:31 158 21.7
2016-May-04 17:21 21.7
2016-May-04 17:11 338 22.2
2016-May-04 17:06 180 22.2
2016-May-04 17:01 016 22.2
2016-May-04 16:56 338 22.8
2016-May-04 16:51 068 22.8
2016-May-04 16:46 045 22.8
2016-May-04 16:31 075 23.3
2016-May-04 16:06 022 23.3
2016-May-04 16:01 022 23.3
2016-May-04 15:56 022 23.3
2016-May-04 15:51 23.3
2016-May-04 15:41 022 23.3
2016-May-04 15:36 045 23.3
2016-May-04 15:26 022 23.3
2016-May-04 15:21 024 23.9
2016-May-04 15:11 24.4
2016-May-04 15:06 026 24.4
2016-May-04 15:01 24.4
2016-May-04 14:56 24.4
2016-May-04 14:51 090 24.4
2016-May-04 14:46 068 0 gusting 1 24.4
2016-May-04 14:36 045 0 gusting 0 24.4
2016-May-04 14:26 022 0 gusting 0 23.9
2016-May-04 14:21 022 2 gusting 2 24.4
2016-May-04 14:16 040 24.4
2016-May-04 14:11 022 0 gusting 1 24.4
2016-May-04 14:06 045 0 gusting 1 24.4
2016-May-04 13:56 068 24.4
2016-May-04 13:51 035 24.4
2016-May-04 13:46 292 25.0
2016-May-04 13:41 045 24.4
2016-May-04 13:36 110 24.4
2016-May-04 13:31 132 24.4
2016-May-04 13:26 24.4
2016-May-04 13:16 015 2 gusting 2 25.0
2016-May-04 13:11 158 25.0
2016-May-04 13:06 043 24.4
2016-May-04 13:01 045 24.4
2016-May-04 12:51 017 0 gusting 0 23.9
2016-May-04 12:46 022 1 gusting 6 23.9
2016-May-04 12:41 24.4
2016-May-04 12:36 041 1 gusting 2 24.4
2016-May-04 12:26 022 0 gusting 0 24.4
2016-May-04 12:21 347 24.4
2016-May-04 12:11 022 24.4
2016-May-04 12:06 027 24.4
2016-May-04 12:01 022 24.4
2016-May-04 11:56 022 25.0
2016-May-04 11:51 019 24.4
2016-May-04 11:46 004 23.9
2016-May-04 11:41 022 4 gusting 5 24.4
2016-May-04 11:31 24.4
2016-May-04 11:26 338 0 gusting 1 24.4
2016-May-04 11:21 022 2 gusting 2 23.9
2016-May-04 11:06 107 24.4
2016-May-04 10:51 358 0 gusting 0 24.4
2016-May-04 10:46 198 24.4
2016-May-04 10:41 022 24.4
2016-May-04 10:36 062 24.4
2016-May-04 10:31 034 0 gusting 1 23.9
2016-May-04 10:21 112 23.9
2016-May-04 10:06 035 23.9
2016-May-04 10:01 056 23.3
2016-May-04 09:51 008 23.3
2016-May-04 09:46 225 22.8
2016-May-04 09:36 188 22.8
2016-May-04 09:31 158 22.8
2016-May-04 09:26 068 22.8
2016-May-04 09:21 032 22.2
2016-May-04 09:16 132 22.8
2016-May-04 09:11 068 22.8
2016-May-04 09:06 009 22.8
2016-May-04 09:01 022 22.2
2016-May-04 08:56 090 21.7
2016-May-04 08:36 022 21.1
2016-May-04 08:31 292 21.1
2016-May-04 08:26 20.6
2016-May-04 08:21 20.6
2016-May-04 08:16 045 20.6
2016-May-04 08:11 135 20.6
2016-May-04 08:06 091 20.0
2016-May-04 08:01 20.0
2016-May-04 07:56 022 0 gusting 0 20.0
2016-May-04 07:51 033 0 gusting 0 19.4
2016-May-04 07:46 022 19.4
2016-May-04 07:36 169 20.0
2016-May-04 07:26 045 19.4
2016-May-04 07:21 144 20.0
2016-May-04 07:16 068 19.4
2016-May-04 07:11 158 19.4
2016-May-04 07:06 114 18.9
2016-May-04 07:01 090 18.3
2016-May-04 06:56 227 18.9
2016-May-04 06:46 18.3
2016-May-04 06:41 180 18.3
2016-May-04 06:36 079 17.8
2016-May-04 06:31 202 17.8
2016-May-04 06:26 340 17.8
2016-May-04 06:21 073 17.2
2016-May-04 06:16 045 16.7
2016-May-04 06:11 045 16.7
2016-May-04 06:06 16.7
2016-May-04 06:01 045 16.1
2016-May-04 05:56 180 16.7
2016-May-04 05:51 037 16.1
2016-May-04 05:46 112 16.1
2016-May-04 05:41 045 15.6
2016-May-04 05:36 077 14.4
2016-May-04 05:26 248 13.3
2016-May-04 05:21 118 13.3
2016-May-04 05:16 090 13.3
2016-May-04 05:06 022 12.8
2016-May-04 04:51 027 12.2
2016-May-04 04:46 12.2
2016-May-04 04:41 202 12.2
2016-May-04 04:36 180 12.2
2016-May-04 04:21 166 12.2
2016-May-04 04:16 180 12.8
2016-May-04 04:11 045 12.8
2016-May-04 03:56 225 12.8
2016-May-04 03:41 338 12.8
2016-May-04 03:36 022 0 gusting 0 12.8
2016-May-04 03:31 292 13.3
2016-May-04 03:26 045 13.3
2016-May-04 03:21 071 13.3
2016-May-04 03:16 225 12.8
2016-May-04 03:11 022 12.8
2016-May-04 03:06 045 12.8
2016-May-04 03:01 022 12.2
2016-May-04 02:56 180 12.8
2016-May-04 02:51 338 12.8
2016-May-04 02:46 045 12.8
2016-May-04 02:41 12.8
2016-May-04 02:16 022 12.2
2016-May-04 02:11 338 12.2
2016-May-04 02:01 180 0 gusting 1 12.2
2016-May-04 01:56 225 0 gusting 1 12.2
2016-May-04 01:51 178 12.2
2016-May-04 01:46 158 12.2
2016-May-04 01:41 217 12.2
2016-May-04 01:31 202 12.2
2016-May-04 01:26 202 12.8
2016-May-04 01:21 202 12.8
2016-May-04 01:06 272 12.8
2016-May-04 01:01 248 12.8
2016-May-04 00:56 12.8
2016-May-04 00:51 047 12.8
2016-May-04 00:46 202 12.8
2016-May-04 00:36 111 12.8
2016-May-04 00:31 022 12.8
2016-May-04 00:21 202 12.8
2016-May-04 00:16 202 12.8
2016-May-04 00:11 202 12.8
2016-May-03 23:51 12.8
2016-May-03 23:46 12.8
2016-May-03 23:41 022 12.8
2016-May-03 23:36 058 12.8
2016-May-03 23:26 127 12.8
2016-May-03 23:21 135 12.8
2016-May-03 23:16 180 12.8
2016-May-03 23:11 158 12.8
2016-May-03 23:06 202 12.8
2016-May-03 23:01 202 12.8
2016-May-03 22:51 202 12.8
2016-May-03 22:46 022 12.8
2016-May-03 22:41 12.8
2016-May-03 22:36 135 13.3
2016-May-03 22:21 153 13.3
2016-May-03 22:16 292 13.3
2016-May-03 22:01 022 0 gusting 1 13.9
2016-May-03 21:56 090 13.9
2016-May-03 21:46 15.0
2016-May-03 21:31 315 14.4
2016-May-03 21:26 045 14.4
2016-May-03 21:21 045 13.9
2016-May-03 21:16 022 13.9
2016-May-03 21:06 133 13.9
2016-May-03 21:01 112 13.9
2016-May-03 20:56 112 13.9
2016-May-03 20:41 14.4
2016-May-03 20:26 180 14.4
2016-May-03 20:21 051 15.0
2016-May-03 20:06 338 15.0
2016-May-03 20:01 045 15.0
2016-May-03 19:56 135 15.0
2016-May-03 19:41 073 15.6
2016-May-03 19:36 037 15.6
2016-May-03 19:31 112 15.6
2016-May-03 19:26 090 16.1
2016-May-03 19:21 107 16.1
2016-May-03 19:16 16.1
2016-May-03 19:11 054 16.1
2016-May-03 19:06 022 16.1
2016-May-03 19:01 202 2 gusting 4 16.1
2016-May-03 18:51 253 16.7
2016-May-03 18:46 045 1 gusting 8 16.7
2016-May-03 18:41 026 0 gusting 8 16.7
2016-May-03 18:31 022 0 gusting 0 17.2
2016-May-03 18:26 039 0 gusting 0 17.2
2016-May-03 18:16 022 0 gusting 1 17.2
2016-May-03 18:06 030 18.3
2016-May-03 17:56 044 18.9
2016-May-03 17:51 022 18.9
2016-May-03 17:46 045 18.9
2016-May-03 17:36 045 18.9
2016-May-03 17:31 045 18.9
2016-May-03 17:26 045 18.9
2016-May-03 17:16 022 19.4
2016-May-03 17:11 022 19.4
2016-May-03 17:06 022 20.0
2016-May-03 17:01 018 20.0
2016-May-03 16:56 053 20.6
2016-May-03 16:41 20.6
2016-May-03 16:36 022 20.6
2016-May-03 16:31 045 21.1
2016-May-03 16:11 021 21.1
2016-May-03 16:06 180 21.1
2016-May-03 16:01 180 21.1
2016-May-03 15:56 021 21.1
2016-May-03 15:51 21.1
2016-May-03 15:41 355 21.1
2016-May-03 15:36 323 21.1
2016-May-03 15:31 338 21.1
2016-May-03 15:26 179 21.1
2016-May-03 15:21 022 21.1
2016-May-03 15:16 068 21.1
2016-May-03 15:06 053 0 gusting 1 21.1
2016-May-03 15:01 022 21.7
2016-May-03 14:51 045 0 gusting 0 22.2
2016-May-03 14:46 112 22.8
2016-May-03 14:41 009 22.8
2016-May-03 14:31 090 23.3
2016-May-03 14:16 112 22.8
2016-May-03 14:11 019 22.2
2016-May-03 14:06 338 22.2
2016-May-03 13:56 22.2
2016-May-03 13:51 22.2
2016-May-03 13:46 22.2
2016-May-03 13:41 006 22.2
2016-May-03 13:36 022 22.8
2016-May-03 13:31 022 22.8
2016-May-03 13:26 073 22.8
2016-May-03 13:16 23.3
2016-May-03 13:11 313 23.3
2016-May-03 12:51 022 23.3
2016-May-03 12:41 23.3
2016-May-03 12:31 23.3
2016-May-03 12:21 154 23.9
2016-May-03 12:16 158 23.9
2016-May-03 12:01 248 23.9
2016-May-03 11:56 332 1 gusting 1 23.9
2016-May-03 11:51 24.4
2016-May-03 11:46 24.4
2016-May-03 11:41 022 1 gusting 2 24.4
2016-May-03 11:31 338 2 gusting 4 24.4
2016-May-03 11:26 068 1 gusting 5 24.4
2016-May-03 11:16 292 0 gusting 0 25.0
2016-May-03 10:56 339 0 gusting 0 24.4
2016-May-03 10:41 022 0 gusting 0 23.9
2016-May-03 10:36 315 23.9
2016-May-03 10:26 008 0 gusting 1 24.4
2016-May-03 10:21 045 0 gusting 0 24.4
2016-May-03 10:16 090 24.4
2016-May-03 10:11 045 4 gusting 4 23.9
2016-May-03 10:06 23.9
2016-May-03 09:56 180 23.9
2016-May-03 09:51 022 0 gusting 2 23.9
2016-May-03 09:46 315 1 gusting 2 24.4
2016-May-03 09:41 033 23.9
2016-May-03 09:36 045 0 gusting 0 23.9
2016-May-03 09:16 022 1 gusting 1 22.8
2016-May-03 09:01 045 2 gusting 4 22.2
2016-May-03 08:56 022 2 gusting 2 22.2
2016-May-03 08:51 090 22.8
2016-May-03 08:46 045 22.8
2016-May-03 08:41 320 22.8
2016-May-03 08:36 22.8
2016-May-03 08:31 068 22.8
2016-May-03 08:26 113 22.8
2016-May-03 08:16 065 22.8
2016-May-03 08:11 068 22.2
2016-May-03 08:01 132 21.7
2016-May-03 07:56 070 21.7
2016-May-03 07:46 023 21.1
2016-May-03 07:31 237 1 gusting 4 20.0
2016-May-03 07:21 20.0
2016-May-03 07:11 18.9
2016-May-03 07:06 202 19.4
2016-May-03 07:01 050 19.4
2016-May-03 06:56 022 18.9
2016-May-03 06:51 068 18.9
2016-May-03 06:46 045 18.3
2016-May-03 06:41 043 17.8
2016-May-03 06:36 315 17.2
2016-May-03 06:31 005 17.2
2016-May-03 06:26 045 17.2
2016-May-03 06:21 135 17.2
2016-May-03 06:16 16.7
2016-May-03 06:11 057 16.7
2016-May-03 06:06 180 17.2
2016-May-03 05:56 090 17.2
2016-May-03 05:36 068 14.4
2016-May-03 05:31 071 13.3
2016-May-03 05:26 045 12.2
2016-May-03 05:16 001 11.1
2016-May-03 05:11 045 11.1
2016-May-03 05:01 202 11.1
2016-May-03 04:56 207 10.6
2016-May-03 04:51 022 10.6
2016-May-03 04:46 005 10.6
2016-May-03 04:41 10.6
2016-May-03 04:36 338 10.6
2016-May-03 04:31 180 11.1
2016-May-03 04:21 180 11.1
2016-May-03 04:11 045 11.1
2016-May-03 04:06 045 11.7
2016-May-03 04:01 045 11.7
2016-May-03 03:51 135 11.7
2016-May-03 03:41 135 11.7
2016-May-03 03:36 068 11.7
2016-May-03 03:31 069 11.7
2016-May-03 03:21 135 11.7
2016-May-03 03:06 090 11.7
2016-May-03 03:01 090 11.7
2016-May-03 02:56 068 11.7
2016-May-03 02:46 090 11.7
2016-May-03 02:36 090 12.2
2016-May-03 02:31 090 12.2
2016-May-03 02:26 112 12.2
2016-May-03 02:21 135 12.2
2016-May-03 02:01 180 12.8
2016-May-03 01:56 180 12.8
2016-May-03 01:51 180 12.8
2016-May-03 01:41 13.3
2016-May-03 01:26 13.9
2016-May-03 01:16 14.4
2016-May-03 01:06 14.4
2016-May-03 01:01 14.4
2016-May-03 00:56 020 14.4
2016-May-03 00:51 022 13.9
2016-May-03 00:46 14.4
2016-May-03 00:36 14.4
2016-May-03 00:26 111 13.9
2016-May-03 00:21 068 14.4
2016-May-03 00:16 066 14.4
2016-May-03 00:11 045 14.4
2016-May-03 00:06 045 14.4
2016-May-03 00:01 14.4
2016-May-02 23:51 202 14.4
2016-May-02 23:46 202 14.4
2016-May-02 23:41 202 15.0
2016-May-02 23:36 202 14.4
2016-May-02 23:31 202 15.0
2016-May-02 23:26 225 15.0
2016-May-02 23:21 225 15.0
2016-May-02 23:16 022 15.0
2016-May-02 23:11 022 15.0
2016-May-02 23:06 022 15.0
2016-May-02 23:01 068 15.6